NOAA NWS Hourly Roundups by Site

Regional Weather Roundup for Bismarck, ND

To Select Another Site Choose from List

Select Site:  

000
ASUS43 KBIS 030410
RWRBIS

NWR BROADCAST TEXT
NATIONAL WEATHER SERVICE BISMARCK ND
1000 PM CST TUE MAR 02 2021

NOTE: "FAIR" INDICATES FEW OR NO CLOUDS BELOW 12,000 FEET WITH NO
SIGNIFICANT WEATHER AND/OR OBSTRUCTIONS TO VISIBILITY.


CITY           SKY/WX    TMP DP  RH WIND       PRES   REMARKS
WILLISTON      MOCLDY    35  28  75 NE8       29.81R
MINOT          CLOUDY    30  27  88 CALM      29.84F
MINOT AFB      MOCLDY    29  27  95 E3        29.83F
BISMARCK       PTCLDY    34  26  72 CALM      29.88R
DICKINSON      MOCLDY    34  18  52 SE3       29.81R
GARRISON         N/A     31  26  82 CALM      29.86R
HETTINGER ARPT PTCLDY    23  16  74 CALM      29.85S
JAMESTOWN      CLEAR     33  29  85 N7        29.88R
CARRINGTON     FAIR      32  30  93 NW5       29.91R
HAZEN          CLOUDY    36  28  75 SE6       29.88R
MANDAN         MOCLDY    36  28  75 E9        29.87R
OAKES          FAIR      34  30  86 N7        29.88R
RUGBY          FAIR      28  28 100 S3        29.87R
STANLEY        MOCLDY    28  28 100 CALM      29.83S
TIOGA          MOCLDY    27  27 100 E6        29.83S WCI  20
WATFORD CITY   CLOUDY    37  25  60 E3        29.82R
$$

CITY           SKY/WX    TMP DP  RH WIND       PRES   REMARKS
GRAND FORKS    CLEAR     25  20  81 N8        29.90R WCI  16
GRAND FORKS AF PTCLDY    24  24  99 N10       29.90R WCI  14
DEVILS LAKE    CLEAR     29  27  92 NE5       29.89R
FARGO          CLEAR     33  28  81 N10       29.90R
CANDO          FAIR      27  27 100 E6        29.89R FOG     WCI  20
CAVALIER       FAIR      25  21  86 N10       29.91R WCI  15
GRAFTON        FAIR      27  21  80 N10       29.93R WCI  17
GWINNER        CLEAR     36  36 100 N12       29.87R
LANGDON        CLOUDY    30  30 100 NE9       29.87S
ROLLA          FAIR      27  27 100 N5        29.86R
WALHALLA       FAIR      23  23 100 N5        29.92R WCI  17
$$

CITY           SKY/WX    TMP DP  RH WIND       PRES   REMARKS
ABERDEEN       CLEAR     35  25  66 CALM      29.89R
MOBRIDGE       PTCLDY    38  21  50 MISG      29.83R
BUFFALO          N/A     35  19  52 SW6       29.83S
RAPID CITY     CLEAR     36  22  56 CALM      29.89S
GLASGOW        CLOUDY    41  30  65 S5        29.76F
SIDNEY         MOCLDY    34  21  59 N7        29.81R
WOLF POINT     CLOUDY    38  23  55 E7        29.80R
GLENDIVE       MOCLDY    44  22  41 CALM      29.81S
MILES CITY     CLOUDY    49  24  37 NW8       29.82R
BAKER          MOCLDY    44  22  41 SW15      29.82S
$$

CITY           SKY/WX    TMP DP  RH WIND       PRES   REMARKS
BILLINGS       PTCLDY    43  19  38 SW13      29.86R
GREAT FALLS    PTCLDY    40  23  50 SW15      29.79S
REGINA         PTCLDY    23  21  93 SE12      29.79R WCI  12
ESTEVAN        CLOUDY    25  23  93 E7        29.81S WCI  17
$$



 

View Past Reports for Bismarck, ND.

Products Courtesy of NOAA-NWS
NWS Information Parsing Script by Ken True at Saratoga Weather - Script by SE Lincoln Weather.